Home > Weather > Dushanbe > Past weeks

Flag for Tajikistan Weather for the Past 2 Weeks in Dushanbe, Tajikistan

Now
28 °F

Light snow. Low clouds.


Feels Like: 22 °F
Forecast: 21 / 32 °F
Wind: 6 mph from Southwest

Location: Dushanbe Airport

Current Time: Feb 10, 2016 at 12:21:09 PM

Latest Report: Feb 10, 2016 at 11:30 AM


Visibility: 2 mi

Pressure: 30.36 "Hg (27.34 "Hg at 832m altitude)

Humidity: 86%

Dew point: 25 °F

Location of DushanbeLocation

Historic Weather in Dushanbe — Graph

°F

Dushanbe Temperature Yesterday

Maximum temperature yesterday: 50 °F (at 12:00 AM)
Minimum temperature yesterday: 32 °F (at 11:30 PM)
Average temperature yesterday: 43 °F

High & Low Weather Summary for the Past Weeks

 TemperatureHumidityPressure
High68 °F (Feb 7, 1:30 PM)100% (Jan 28, 11:30 PM)30.45 "Hg (Jan 28, 11:30 PM)
Low25 °F (Jan 30, 8:00 AM)16% (Feb 7, 1:30 PM)29.92 "Hg (Jan 26, 5:00 PM)
Average41 °F69%30.20 "Hg
* Reported Jan 26 11:00 AM — Feb 10 11:00 AM, Dushanbe, Weather by CustomWeather, © 2016

Note: Actual official high and low records may vary slightly from our data, if they occured in-between our weather recording intervals... More about our weather records

Advertising

Dushanbe Weather History for the Previous 24 Hours

 ConditionsComfort  
Time TempWeatherWind HumidityBarometerVisibility
11:00 AM
Wed, Feb 10
28 °FLight snow. Mostly cloudy.3 mph93%30.36 "Hg1 mi
10:30 AM28 °FLight snow. Mostly cloudy.3 mph93%30.36 "Hg4 mi
10:00 AM28 °FLight snow. More clouds than sun.3 mph93%30.33 "Hg4 mi
9:30 AM28 °FLight snow. Ice fog.6 mph93%30.33 "Hg2 mi
9:00 AM28 °FLight snow. Ice fog.6 mph86%30.33 "Hg2 mi
8:30 AM28 °FLight snow. Cloudy.6 mph93%30.30 "Hg3 mi
8:00 AM28 °FLight snow. Ice fog.3 mph93%30.30 "Hg1 mi
7:30 AM28 °FLight snow. Ice fog.1 mph93%30.27 "Hg1 mi
7:00 AM27 °FLight snow. Overcast.1 mph100%30.27 "HgN/A
6:30 AM28 °FLight snow. Mostly cloudy.1 mph93%30.24 "Hg5 mi
5:30 AM28 °FLight snow. Ice fog.6 mph93%30.24 "Hg3 mi
5:00 AM28 °FLight snow. Ice fog.8 mph93%30.24 "Hg2 mi
4:30 AM28 °FLight snow. Ice fog.10 mph93%30.24 "Hg1 mi
4:00 AM28 °FLight snow. Ice fog.10 mph93%30.24 "Hg1 mi
3:30 AM28 °FSnow. Ice fog.10 mph100%30.24 "Hg1 mi
2:30 AM30 °FSnow. Ice fog.8 mph93%30.21 "Hg1 mi
2:00 AM30 °FLight snow. Ice fog.8 mph93%30.21 "Hg1 mi
1:30 AM30 °FSnow. Ice fog.13 mph93%30.21 "Hg1 mi
1:00 AM30 °FLight snow. Ice fog.13 mph100%30.21 "Hg2 mi
12:30 AM32 °FLight snow. Ice fog.15 mph87%30.21 "Hg2 mi
12:00 AM32 °FLight snow. Mostly cloudy.15 mph87%30.18 "HgN/A
11:30 PM
Tue, Feb 9
32 °FLight snow. Overcast.15 mph93%30.18 "Hg5 mi
11:00 PM34 °FLight snow. Fog.13 mph87%30.18 "Hg3 mi
10:30 PM34 °FLight snow. Mostly cloudy.13 mph87%30.15 "HgN/A
10:00 PM34 °FLight snow. Mostly cloudy.15 mph93%30.15 "Hg6 mi
9:30 PM34 °FLight snow. Fog.13 mph93%30.15 "Hg3 mi
9:00 PM34 °FLight snow. Fog.17 mph93%30.15 "Hg3 mi
8:30 PM34 °FLight rain. Low clouds.20 mph93%30.12 "Hg5 mi
8:00 PM37 °FLight rain. Overcast.15 mph87%30.12 "Hg5 mi
7:30 PM39 °FLight rain. Fog.8 mph93%30.09 "Hg2 mi
7:00 PM41 °FLight rain. Fog.3 mph87%30.09 "Hg2 mi
6:30 PM41 °FLight rain. Fog.3 mph87%30.07 "Hg2 mi
6:00 PM41 °FDrizzle. Fog.1 mph81%30.07 "Hg2 mi
5:30 PM41 °FDrizzle. Fog.3 mph81%30.07 "Hg2 mi
5:00 PM41 °FFog.3 mph81%30.07 "Hg2 mi
4:30 PM41 °FFog.6 mph87%30.04 "Hg2 mi
3:30 PM45 °FOvercast.10 mph76%30.04 "Hg4 mi
3:00 PM45 °FFog.13 mph76%30.04 "Hg3 mi
2:30 PM45 °FFog.13 mph76%30.04 "Hg3 mi
2:00 PM46 °FFog.10 mph76%30.04 "Hg3 mi
1:00 PM46 °FScattered clouds.8 mph71%30.07 "Hg4 mi
12:30 PM46 °FPassing clouds.10 mph71%30.07 "Hg4 mi
12:00 PM46 °FClear.13 mph71%30.09 "Hg4 mi
Weather by CustomWeather, © 2016

See weather overviewHow to use our weather pages